Location: Briis
(48.6240°N, 2.1211°E)
Time: 14:44:22
(UTC+00:00)

Cosmos 2228 Rocket - Pass Details

Date: 25 September 2020
Orbit: 619 x 651 km, 82.5° (Epoch: 22 October)

Event Time Altitude Azimuth Distance (km) Brightness Sun altitude
Exits shadow 02:33:13 39° 62° (ENE) 939 4.3 -30.0°
Drops below altitude 10° 02:36:36 10° 22° (NNE) 2,008 6.4 -29.6°
Sets 02:38:55 0° 16° (NNE) 2,925 7.3 -29.3°
